[[{"header":{"parameterUnit":"m.s-1","parameterCategory":1,"la1":30.2992,"la2":30.254,"lo1":-89.0895,"lo2":-89.0443,"dy":0.0025,"dx":0.0025,"nx":19,"ny":19,"refTime":"2026-03-26T03:00:00:Z","depth":0,"parameterNumber":2,"parameterNumberName":"U-component_of_WINDS"},"data":[0,0,0,2.6343,2.6345,2.6436,2.6436,2.6553,2.6554,0,0,0,0,0,0,0,0,0,0,0,2.6315,2.6315,2.6343,2.6345,2.6435,2.6436,2.6553,2.6554,0,0,0,0,0,0,0,0,0,0,0,2.6314,2.6315,2.6316,2.6345,2.6435,2.6436,2.6552,2.6484,0,0,0,0,0,0,0,0,0,0,2.6396,2.6368,2.6315,2.6316,2.6346,2.6435,2.6436,2.6481,2.6488,2.6512,0,2.653,0,2.6544,2.6562,2.6562,0,0,0,2.6346,2.6362,2.6387,2.6316,2.6347,2.6435,2.6395,2.6485,2.6494,2.6522,2.6532,2.6536,2.6546,2.6562,2.6563,2.6689,2.669,0,0,2.6341,2.633,2.6381,2.6393,2.6377,2.6392,2.6398,2.649,2.6501,2.6532,2.6539,2.6548,2.6563,2.6564,2.6689,2.669,0,0,0,2.6326,2.6327,2.635,2.6388,2.6404,2.6395,2.6401,2.6497,2.6506,2.654,2.6549,2.6564,2.6565,2.6688,2.6689,2.6703,0,0,0,2.6323,2.6318,2.6348,2.6342,2.6402,2.6451,2.6406,2.6499,2.651,2.6549,2.6564,2.6566,2.6688,2.6689,2.6702,2.6711,0,0,0,2.6309,2.6316,2.6329,2.6341,2.638,2.645,2.6464,2.6502,2.6515,2.6562,2.6567,2.6687,2.6689,2.67,2.6709,2.6741,0,0,0,2.6291,2.634,2.6329,2.6387,2.6379,2.6458,2.6463,2.6523,2.6565,2.6564,2.6688,2.6689,2.67,2.6707,2.6739,2.6765,2.6775,0,0,2.6346,2.6346,2.6381,2.6374,2.6452,2.6445,2.6526,2.6575,2.6591,2.6656,2.666,2.6702,2.6709,2.6741,2.6836,2.6844,0,0,0,2.6395,2.642,2.6443,2.6482,2.6521,2.6556,2.6594,2.6613,2.6669,2.6622,2.6724,2.6728,2.6747,2.676,2.6766,2.6784,2.6695,2.6695,2.6695,2.6455,2.6472,2.6532,2.6561,2.66,2.664,2.6673,2.6706,2.6712,2.6736,2.6755,2.681,2.6825,2.683,2.6848,2.6771,2.6771,2.6771,2.6771,2.6536,2.6574,2.6584,2.6644,2.6664,2.6716,2.6759,2.6762,2.6814,2.6797,2.6815,2.6793,2.6838,2.6854,2.6773,2.6772,2.6772,2.6772,2.6772,2.6576,2.6597,2.662,2.668,2.6725,2.6754,2.6805,2.6821,2.6837,2.6855,2.6877,2.6876,2.6878,2.6864,2.6865,2.6865,2.6865,2.6865,2.6865,2.6607,2.6633,2.6672,2.672,2.6748,2.6788,2.6832,2.6861,2.6898,2.6906,2.6906,2.691,2.6839,2.682,2.6868,2.6868,2.6867,2.6867,2.6867,2.668,2.6667,2.6728,2.6756,2.6815,2.686,2.6881,2.694,2.6967,2.6992,2.6994,2.6939,2.694,2.6935,2.6919,2.699,2.699,2.699,2.699,2.6712,2.6715,2.6782,2.6827,2.6874,2.6901,2.6972,2.7008,2.7043,2.7062,2.7054,2.7036,2.703,2.7034,2.7027,2.7013,2.7106,2.7106,2.7106,2.6758,2.6767,2.6822,2.6856,2.6904,2.6946,2.7014,2.7067,2.7105,2.7111,2.7076,2.7071,2.7041,2.7031,2.7033,2.7021,2.6995,0,0]},{"header":{"parameterUnit":"m.s-1","parameterCategory":1,"la1":30.2992,"la2":30.254,"lo1":-89.0895,"lo2":-89.0443,"dy":0.0025,"dx":0.0025,"nx":19,"ny":19,"refTime":"2026-03-26T03:00:00:Z","depth":0,"parameterNumber":3,"parameterNumberName":"V-component_of_WINDS"},"data":[0,0,0,2.8304,2.8307,2.8456,2.8456,2.8642,2.8644,0,0,0,0,0,0,0,0,0,0,0,2.8261,2.8262,2.8303,2.8307,2.8455,2.8456,2.8642,2.8644,0,0,0,0,0,0,0,0,0,0,0,2.826,2.8262,2.8264,2.8308,2.8455,2.8456,2.8641,2.853,0,0,0,0,0,0,0,0,0,0,2.8386,2.8349,2.8262,2.8264,2.8309,2.8455,2.8456,2.8524,2.8537,2.8574,0,2.8611,0,2.8631,2.8656,2.8657,0,0,0,2.8305,2.8339,2.8378,2.8264,2.831,2.8455,2.8388,2.8531,2.8545,2.859,2.8614,2.8621,2.8634,2.8657,2.8658,2.8887,2.8888,0,0,2.8297,2.8288,2.8368,2.8387,2.8368,2.8383,2.8393,2.854,2.8563,2.8615,2.8625,2.8637,2.8659,2.866,2.8886,2.8887,0,0,0,2.8275,2.8282,2.8318,2.8379,2.8407,2.8388,2.8398,2.8557,2.8569,2.8627,2.8639,2.866,2.8662,2.8885,2.8886,2.8935,0,0,0,2.827,2.8269,2.8314,2.831,2.8404,2.8485,2.8412,2.8559,2.8576,2.8638,2.866,2.8664,2.8883,2.8885,2.8931,2.8959,0,0,0,2.8251,2.8267,2.829,2.8309,2.8373,2.8482,2.8503,2.8563,2.8583,2.8657,2.8664,2.8882,2.8885,2.8927,2.8953,2.9016,0,0,0,2.8227,2.8331,2.829,2.841,2.8372,2.8512,2.8502,2.8607,2.8676,2.8661,2.8883,2.8886,2.8926,2.895,2.9012,2.9066,2.9089,0,0,2.8353,2.8346,2.8417,2.8384,2.853,2.849,2.8642,2.8713,2.8726,2.8831,2.8837,2.8932,2.8953,2.9015,2.9217,2.9235,0,0,0,2.8453,2.8504,2.8544,2.8611,2.8668,2.8718,2.8767,2.8792,2.8882,2.878,2.8972,2.8985,2.9021,2.9048,2.9063,2.9093,2.8898,2.8898,2.8898,2.8618,2.8631,2.8748,2.8778,2.8842,2.889,2.8941,2.8983,2.8977,2.9022,2.9053,2.9175,2.9206,2.9217,2.9249,2.9084,2.9084,2.9084,2.9084,2.8802,2.8875,2.8863,2.8973,2.8984,2.9075,2.9123,2.9115,2.9199,2.9153,2.9186,2.9134,2.9236,2.9264,2.9088,2.9087,2.9087,2.9086,2.9086,2.8911,2.8948,2.8978,2.9073,2.9144,2.9169,2.9249,2.9257,2.9263,2.9296,2.9328,2.9327,2.9326,2.9311,2.9311,2.9312,2.9312,2.9312,2.9312,2.9012,2.9044,2.9113,2.918,2.9222,2.9278,2.9324,2.9364,2.941,2.9408,2.9408,2.9396,2.9244,2.9205,2.9319,2.9318,2.9317,2.9316,2.9316,2.9192,2.9152,2.9259,2.9301,2.9378,2.9446,2.9454,2.9534,2.9568,2.9606,2.9586,2.9474,2.9466,2.9454,2.9422,2.9585,2.9585,2.9585,2.9585,2.9283,2.928,2.939,2.9455,2.9521,2.9537,2.9652,2.9687,2.9717,2.9737,2.9715,2.9672,2.966,2.966,2.9644,2.9614,2.9822,2.9822,2.9822,2.9394,2.9397,2.9497,2.9528,2.9588,2.9638,2.9746,2.9818,2.9843,2.9832,2.9753,2.9743,2.9675,2.9653,2.9641,2.9615,2.9561,0,0]}]]